DW0893 Weather Reports


time (UTC)temp
F
wind
direction
speed
knots
gust
knots
rain 1hr
in
rain 24hr
in
rain mn
in
humidity
%
barometer
mb
20260506051056 46 47 1.7 6.1 0.00 0.00 0.00 81 1013.1
20260506050556 46 56 0.9 4.3 0.00 0.00 0.00 81 1013.0
20260506050104 46 0 1.7 4.3 0.00 0.00 0.00 81 1013.1
20260506045055 46 65 0.0 7.0 0.00 0.00 0.00 81 1013.0
20260506044604 46 66 0.9 7.0 0.00 0.00 0.00 81 1012.9
20260506044056 46 66 2.6 7.0 0.00 0.00 0.00 81 1013.1
20260506043555 46 71 0.9 6.1 0.00 0.00 0.00 82 1013.0
20260506043056 46 32 1.7 7.8 0.00 0.00 0.00 82 1013.0
20260506042557 46 35 1.7 8.7 0.00 0.00 0.00 82 1013.0
20260506042100 46 45 1.7 9.6 0.00 0.00 0.00 82 1013.0
20260506041607 46 43 2.6 9.6 0.00 0.00 0.00 82 1012.9
20260506041056 46 26 2.6 8.7 0.00 0.00 0.00 82 1013.1
20260506040556 46 26 0.9 10.4 0.00 0.00 0.00 82 1013.0
20260506040100 47 0 2.6 10.4 0.00 0.00 0.00 82 1013.0
20260506035556 47 43 4.3 9.6 0.00 0.00 0.00 82 1012.9
20260506035056 47 33 3.5 11.3 0.00 0.00 0.00 82 1012.9
20260506034557 47 42 2.6 11.3 0.00 0.00 0.00 82 1013.0
20260506034057 47 16 4.3 10.4 0.00 0.00 0.00 82 1012.9
20260506033557 47 37 1.7 7.0 0.00 0.00 0.00 82 1013.0
20260506033055 47 45 1.7 7.8 0.00 0.00 0.00 82 1012.9
20260506032556 47 30 1.7 7.8 0.00 0.00 0.00 82 1012.8
20260506032056 47 45 2.6 7.0 0.00 0.00 0.00 82 1012.9
20260506031558 47 0 1.7 7.8 0.00 0.00 0.00 82 1012.9
20260506031057 47 33 2.6 7.8 0.00 0.00 0.00 82 1012.9
20260506030557 47 41 0.9 9.6 0.00 0.00 0.00 82 1012.9
20260506025556 48 25 1.7 9.6 0.00 0.00 0.00 82 1012.9
20260506025100 48 7 3.5 9.6 0.00 0.00 0.00 82 1012.8
20260506024602 48 51 3.5 7.8 0.00 0.00 0.00 82 1012.9
20260506024056 48 37 0.9 7.8 0.00 0.00 0.00 83 1013.0
20260506023556 48 32 2.6 7.8 0.00 0.00 0.00 83 1012.9
20260506023108 48 27 2.6 8.7 0.00 0.00 0.00 83 1012.9
20260506022557 48 40 1.7 8.7 0.00 0.00 0.00 82 1013.0
20260506022056 48 0 4.3 8.7 0.00 0.00 0.00 82 1012.9
20260506021617 48 36 1.7 4.3 0.00 0.00 0.00 82 1012.9
20260506021057 48 0 1.7 6.1 0.00 0.00 0.00 82 1012.9
20260506020555 49 36 1.7 7.0 0.00 0.00 0.00 82 1013.0
20260506020057 49 41 0.9 7.0 0.00 0.00 0.00 82 1013.0
20260506015557 49 0 2.6 7.8 0.00 0.00 0.00 82 1013.1
20260506015100 49 39 1.7 7.8 0.00 0.00 0.00 82 1013.1
20260506014555 49 54 2.6 7.8 0.00 0.00 0.00 81 1012.9
20260506014059 49 37 2.6 7.8 0.00 0.00 0.00 81 1013.0
20260506013558 49 55 2.6 7.0 0.00 0.00 0.00 81 1013.0
20260506013109 49 51 1.7 7.0 0.00 0.00 0.00 80 1013.0
20260506012557 49 51 2.6 7.0 0.00 0.00 0.00 80 1013.0
20260506012058 49 39 1.7 6.1 0.00 0.00 0.00 80 1013.0
20260506011617 49 42 0.9 7.0 0.00 0.00 0.00 79 1013.1
20260506011057 49 47 3.5 7.8 0.00 0.00 0.00 79 1013.2
20260506010557 50 55 1.7 7.8 0.00 0.00 0.00 79 1013.2
20260506010104 50 43 1.7 7.8 0.00 0.00 0.00 79 1013.2
20260506005600 50 42 1.7 7.8 0.00 0.00 0.00 78 1013.2
20260506005057 50 42 0.9 8.7 0.00 0.00 0.00 78 1013.2
20260506004602 50 42 2.6 8.7 0.00 0.00 0.00 78 1013.2
20260506004058 50 27 3.5 7.8 0.00 0.00 0.00 77 1013.3
20260506003558 50 54 2.6 7.8 0.00 0.00 0.00 76 1013.3
20260506003058 50 51 1.7 8.7 0.00 0.00 0.00 76 1013.2
20260506002557 50 58 3.5 10.4 0.00 0.00 0.00 76 1013.2
20260506002057 50 71 3.5 10.4 0.00 0.00 0.00 76 1013.3
20260506001600 50 61 4.3 10.4 0.00 0.00 0.00 75 1013.2
20260506001058 50 55 3.5 9.6 0.00 0.00 0.00 75 1013.2
20260506000558 51 16 4.3 9.6 0.00 0.00 0.00 76 1013.2
20260506000108 51 57 4.3 9.6 0.00 0.00 0.00 76 1013.3
20260505235558 51 43 4.3 8.7 0.00 0.00 0.00 76 1013.3
20260505235057 51 23 3.5 11.3 0.00 0.00 0.00 76 1013.2
20260505234559 51 59 3.5 11.3 0.00 0.00 0.00 76 1013.1
20260505234057 51 33 3.5 9.6 0.00 0.00 0.00 76 1013.2
20260505233558 51 0 4.3 9.6 0.00 0.00 0.00 76 1013.2
20260505233108 52 45 4.3 10.4 0.00 0.00 0.00 76 1013.2
20260505232557 52 20 4.3 10.4 0.00 0.00 0.00 75 1013.1
20260505232057 52 42 4.3 9.6 0.00 0.00 0.00 75 1013.1
20260505231613 52 16 4.3 9.6 0.00 0.00 0.00 75 1013.0
20260505231056 52 36 4.3 10.4 0.00 0.00 0.00 75 1012.8
20260505230559 52 24 3.5 10.4 0.00 0.00 0.00 75 1012.9
20260505230100 53 24 2.6 10.4 0.00 0.00 0.00 76 1013.0
20260505225557 53 66 1.7 9.6 0.00 0.00 0.00 76 1013.1
20260505225057 53 71 2.6 9.6 0.00 0.00 0.00 76 1013.0
20260505224604 53 43 3.5 9.6 0.00 0.00 0.00 76 1012.9
20260505224058 53 57 2.6 7.8 0.00 0.00 0.00 76 1012.9
20260505223559 53 35 2.6 9.6 0.00 0.00 0.00 75 1012.8
20260505223058 53 43 2.6 9.6 0.00 0.00 0.00 75 1012.8
20260505222600 53 49 1.7 9.6 0.00 0.00 0.00 75 1012.7
20260505222057 53 48 3.5 9.6 0.00 0.00 0.00 75 1012.8
20260505221604 53 39 2.6 7.8 0.00 0.00 0.00 75 1012.7
20260505221056 53 47 3.5 7.8 0.00 0.00 0.00 75 1012.5
20260505220556 53 34 2.6 7.0 0.00 0.00 0.00 75 1012.6
20260505220105 53 49 1.7 5.2 0.00 0.00 0.00 75 1012.6
20260505215556 53 42 1.7 9.6 0.00 0.00 0.00 75 1012.5
20260505215056 53 43 3.5 9.6 0.00 0.00 0.00 75 1012.5
20260505214600 53 36 3.5 9.6 0.00 0.00 0.00 74 1012.6
20260505214058 54 37 2.6 9.6 0.00 0.00 0.00 73 1012.5
20260505213555 54 0 3.5 8.7 0.00 0.00 0.00 73 1012.5
20260505213111 54 65 3.5 8.7 0.00 0.00 0.00 72 1012.5
20260505212555 54 44 3.5 10.4 0.00 0.00 0.00 72 1012.6
20260505212056 54 52 4.3 10.4 0.00 0.00 0.00 71 1012.4
20260505211605 54 37 3.5 11.3 0.00 0.00 0.00 71 1012.4
20260505211057 54 21 3.5 11.3 0.00 0.00 0.00 71 1012.5
20260505210556 54 16 6.1 11.3 0.00 0.00 0.00 71 1012.4
20260505210106 54 17 3.5 9.6 0.00 0.00 0.00 71 1012.3
20260505205556 54 42 4.3 9.6 0.00 0.00 0.00 71 1012.3
20260505205056 54 45 4.3 11.3 0.00 0.00 0.00 71 1012.4
20260505204600 55 36 4.3 11.3 0.00 0.00 0.00 70 1012.4
20260505204056 55 51 3.5 11.3 0.00 0.00 0.00 71 1012.4
20260505203556 55 30 5.2 11.3 0.00 0.00 0.00 71 1012.3
20260505203126 55 11 3.5 12.2 0.00 0.00 0.00 71 1012.3
20260505202559 55 56 6.1 12.2 0.00 0.00 0.00 71 1012.2
20260505202057 55 39 5.2 10.4 0.00 0.00 0.00 71 1012.3
20260505201603 55 38 3.5 7.8 0.00 0.00 0.00 71 1012.2
20260505201056 55 38 3.5 8.7 0.00 0.00 0.00 71 1012.1
20260505200556 56 30 2.6 8.7 0.00 0.00 0.00 71 1012.2
20260505200059 56 31 1.7 7.0 0.00 0.00 0.00 70 1012.0
20260505195600 56 29 1.7 7.0 0.00 0.00 0.00 70 1012.1
20260505195059 56 0 2.6 5.2 0.00 0.00 0.00 70 1012.0
20260505194559 56 16 0.9 6.1 0.00 0.00 0.00 70 1011.8
20260505194056 56 16 0.9 6.1 0.00 0.00 0.00 70 1011.9
20260505193557 56 0 0.0 4.3 0.00 0.00 0.00 69 1011.8
20260505193057 56 0 0.9 5.2 0.00 0.00 0.00 69 1011.8
20260505192559 56 0 1.7 6.1 0.00 0.00 0.00 69 1011.8
20260505192056 56 22 0.9 6.1 0.00 0.00 0.00 69 1011.8
20260505191611 56 23 1.7 5.2 0.00 0.00 0.00 69 1011.7
20260505191056 57 30 1.7 7.8 0.00 0.00 0.00 68 1011.7
20260505190556 57 14 1.7 7.8 0.00 0.00 0.00 68 1011.6
20260505190057 57 29 1.7 7.8 0.00 0.00 0.00 68 1011.7
20260505185556 57 28 1.7 7.8 0.00 0.00 0.00 68 1011.6
20260505185058 57 10 1.7 7.0 0.00 0.00 0.00 67 1011.6
20260505184559 57 25 1.7 7.8 0.00 0.00 0.00 67 1011.6
20260505184057 57 24 2.6 7.8 0.00 0.00 0.00 67 1011.6
20260505183557 57 3 1.7 8.7 0.00 0.00 0.00 67 1011.6
20260505183058 57 1 2.6 8.7 0.00 0.00 0.00 66 1011.6
20260505182556 57 44 2.6 8.7 0.00 0.00 0.00 66 1011.5
20260505182056 57 18 3.5 8.7 0.00 0.00 0.00 66 1011.6
20260505181558 58 5 1.7 8.7 0.00 0.00 0.00 66 1011.5
20260505181056 58 342 2.6 8.7 0.00 0.00 0.00 66 1011.6
20260505180557 58 14 2.6 7.0 0.00 0.00 0.00 66 1011.6
20260505175559 57 7 0.9 7.8 0.00 0.00 0.00 67 1011.5
20260505175059 57 5 2.6 7.8 0.00 0.00 0.00 67 1011.5
20260505174605 57 20 0.9 7.0 0.00 0.00 0.00 68 1011.6
20260505174058 57 9 0.9 4.3 0.00 0.00 0.00 68 1011.5
20260505173556 57 8 0.0 4.3 0.00 0.00 0.00 68 1011.6
20260505173059 57 0 0.9 6.1 0.00 0.00 0.00 68 1011.7
20260505172556 57 1 1.7 6.1 0.00 0.00 0.00 68 1011.7
20260505172057 57 0 1.7 4.3 0.00 0.00 0.00 69 1011.7
20260505171557 57 7 0.9 4.3 0.00 0.00 0.00 69 1011.6
20260505171058 57 0 1.7 7.0 0.00 0.00 0.00 68 1011.7
20260505170556 57 9 2.6 7.8 0.00 0.00 0.00 68 1011.7
20260505170109 57 0 0.9 7.8 0.00 0.00 0.00 68 1011.7
20260505165556 58 18 2.6 7.8 0.00 0.00 0.00 68 1011.7
20260505165058 58 13 2.6 7.0 0.00 0.00 0.00 67 1011.8
20260505164555 58 8 0.9 7.0 0.00 0.00 0.00 68 1011.7
20260505164058 58 5 1.7 7.0 0.00 0.00 0.00 67 1011.8
20260505163559 58 350 1.7 6.1 0.00 0.00 0.00 67 1011.7
20260505163059 58 0 2.6 7.8 0.00 0.00 0.00 66 1011.7
20260505162559 58 24 2.6 8.7 0.00 0.00 0.00 66 1011.9
20260505162057 59 19 3.5 8.7 0.00 0.00 0.00 66 1011.8
20260505161615 59 355 4.3 8.7 0.00 0.00 0.00 65 1011.8
20260505161056 59 12 3.5 7.8 0.00 0.00 0.00 64 1011.9
20260505160556 59 4 3.5 7.8 0.00 0.00 0.00 63 1011.8
20260505153105 59 28 0.9 7.0 0.00 0.00 0.00 64 1011.8
20260505152558 59 28 2.6 7.0 0.00 0.00 0.00 63 1011.9
20260505152058 59 18 2.6 7.0 0.00 0.00 0.00 64 1011.9
20260505151605 59 36 0.9 4.3 0.00 0.00 0.00 65 1011.8
20260505151059 59 37 0.9 3.5 0.00 0.00 0.00 64 1012.0
20260505150558 58 0 0.9 3.5 0.00 0.00 0.00 64 1012.1
20260505140556 58 12 1.7 8.7 0.00 0.00 0.00 65 1012.2
20260505140104 58 11 3.5 7.8 0.00 0.00 0.00 65 1012.2
20260505124557 59 19 3.5 7.8 0.00 0.00 0.00 64 1012.4
20260505124057 59 0 1.7 4.3 0.00 0.00 0.00 64 1012.4
20260505123558 59 0 0.9 4.3 0.00 0.00 0.00 64 1012.4
20260505123059 59 0 1.7 7.0 0.00 0.00 0.00 65 1012.4
20260505122556 59 360 1.7 7.0 0.00 0.00 0.00 66 1012.4
20260505122056 59 350 1.7 7.8 0.00 0.00 0.00 65 1012.4
20260505121625 59 42 2.6 7.8 0.00 0.00 0.00 65 1012.4
20260505121056 59 9 1.7 7.8 0.00 0.00 0.00 67 1012.4
20260505120556 59 355 3.5 7.8 0.00 0.00 0.00 66 1012.4
20260505120058 59 355 3.5 8.7 0.00 0.00 0.00 68 1012.4
20260505115600 59 14 1.7 8.7 0.00 0.00 0.00 68 1012.5
20260505115058 58 5 3.5 8.7 0.00 0.00 0.00 68 1012.5
20260505114556 58 30 3.5 7.8 0.00 0.00 0.00 68 1012.6
20260505114056 58 0 0.9 7.8 0.00 0.00 0.00 71 1012.6
20260505113555 57 39 2.6 7.8 0.00 0.00 0.00 71 1012.5
20260505113058 57 355 2.6 7.8 0.00 0.00 0.00 73 1012.6
20260505112556 56 12 2.6 7.0 0.00 0.00 0.00 75 1012.7
20260505112056 55 18 1.7 5.2 0.00 0.00 0.00 75 1012.9
20260505111557 55 42 1.7 5.2 0.00 0.00 0.00 75 1012.9
20260505111056 55 43 1.7 6.1 0.00 0.00 0.00 75 1012.8
20260505110557 55 43 1.7 6.1 0.00 0.00 0.00 75 1012.9
20260505102055 54 22 2.6 7.8 0.00 0.00 0.00 77 1013.0
20260505101559 54 45 1.7 7.8 0.00 0.00 0.00 78 1013.1
20260505101055 54 43 3.5 7.8 0.00 0.00 0.00 78 1013.1
20260505100557 54 33 2.6 7.0 0.00 0.00 0.00 78 1013.0
20260505095600 54 16 0.9 7.0 0.00 0.00 0.00 79 1013.1
20260505095056 53 0 0.9 8.7 0.00 0.00 0.00 78 1013.0
20260505094601 54 53 3.5 8.7 0.00 0.00 0.00 78 1013.1
20260505094056 54 7 2.6 8.7 0.00 0.00 0.00 78 1013.2
20260505093556 54 19 2.6 7.0 0.00 0.00 0.00 79 1013.1
20260505093100 54 20 1.7 6.1 0.00 0.00 0.00 80 1013.1
20260505092601 54 38 2.6 7.0 0.00 0.00 0.00 80 1013.0
20260505092056 53 31 2.6 7.0 0.00 0.00 0.00 80 1013.1
20260505091557 53 28 0.9 5.2 0.00 0.00 0.00 80 1013.2
20260505091100 53 31 1.7 8.7 0.00 0.00 0.00 80 1013.2
20260505090556 53 32 2.6 8.7 0.00 0.00 0.00 80 1013.1
20260505090106 53 44 4.3 8.7 0.00 0.00 0.00 81 1013.3
20260505085556 53 39 2.6 7.8 0.00 0.00 0.00 81 1013.3
20260505085057 53 15 2.6 7.8 0.00 0.00 0.00 82 1013.4
20260505084559 53 25 0.9 8.7 0.00 0.00 0.00 83 1013.4
20260505084057 53 29 2.6 8.7 0.00 0.00 0.00 82 1013.3
20260505083556 53 332 3.5 7.0 0.00 0.00 0.00 83 1013.3
20260505083104 53 51 2.6 8.7 0.00 0.00 0.00 83 1013.4
20260505082556 53 27 2.6 8.7 0.00 0.00 0.00 84 1013.4
20260505082056 53 21 4.3 8.7 0.00 0.00 0.00 84 1013.3
20260505081602 52 17 1.7 8.7 0.00 0.00 0.00 84 1013.4
20260505081058 52 17 3.5 8.7 0.00 0.00 0.00 84 1013.5
20260505080558 52 33 3.5 8.7 0.00 0.00 0.00 84 1013.3
20260505075557 52 27 3.5 8.7 0.00 0.00 0.00 84 1013.4
20260505075056 52 31 2.6 7.8 0.00 0.00 0.00 84 1013.4
20260505074609 52 28 2.6 8.7 0.00 0.00 0.00 84 1013.3
20260505074059 52 24 3.5 8.7 0.00 0.00 0.00 84 1013.3
20260505073557 52 18 2.6 8.7 0.00 0.00 0.00 84 1013.3
20260505073059 52 18 2.6 8.7 0.00 0.00 0.00 85 1013.6
20260505072558 52 23 1.7 5.2 0.00 0.00 0.00 85 1013.4
20260505072055 52 0 0.9 7.0 0.00 0.00 0.00 85 1013.5
20260505071558 52 18 2.6 8.7 0.00 0.00 0.00 86 1013.5
20260505071056 52 20 1.7 8.7 0.00 0.00 0.00 86 1013.4
20260505070557 52 20 3.5 8.7 0.00 0.00 0.00 86 1013.4
20260505070059 52 39 1.7 6.1 0.00 0.00 0.00 87 1013.4
20260505065557 52 39 1.7 6.1 0.00 0.00 0.00 87 1013.5
20260505065056 52 27 1.7 5.2 0.00 0.00 0.00 88 1013.5
20260505064600 52 27 2.6 6.1 0.00 0.00 0.00 88 1013.5
20260505064056 52 28 0.9 6.1 0.00 0.00 0.00 89 1013.4
20260505063557 52 36 2.6 6.1 0.00 0.00 0.00 89 1013.5
20260505063059 51 36 1.7 5.2 0.00 0.00 0.00 90 1013.4
20260505062558 51 36 0.9 5.2 0.00 0.00 0.00 90 1013.4
20260505062058 51 35 0.0 4.3 0.00 0.00 0.00 90 1013.3
20260505061607 51 34 0.9 4.3 0.00 0.00 0.00 90 1013.3
20260505061058 51 34 0.0 4.3 0.00 0.00 0.00 90 1013.2
20260505060558 51 34 0.9 4.3 0.00 0.00 0.00 90 1013.3
20260505060103 50 0 1.7 4.3 0.00 0.00 0.00 90 1013.3
20260505055559 50 34 0.9 3.5 0.00 0.00 0.00 90 1013.3
20260505055058 50 34 0.9 3.5 0.00 0.00 0.00 90 1013.4
20260505054559 50 34 0.0 5.2 0.00 0.00 0.00 90 1013.3
20260505054058 50 0 0.9 5.2 0.00 0.00 0.00 90 1013.3
20260505053557 50 0 0.0 4.3 0.00 0.00 0.00 90 1013.4
20260505053106 50 34 1.7 4.3 0.00 0.00 0.00 90 1013.5
20260505052602 50 0 0.9 4.3 0.00 0.00 0.00 90 1013.5
20260505052056 50 0 0.0 4.3 0.00 0.00 0.00 90 1013.5